OBJECT U, 42843

Orbit data source: Space-Track

You're viewing an uncataloged RSO

Recently launched and/or uncataloged RSOs may have evolving metadata. Metadata may include the following, but is not limited to: Owner, Manufacturer, Bus, Motor, and Mission.

OBJECT U, 42843 is a satellite in SSO that was launched on Fri, 14 Jul 2017 UTC via a SOYUZ-2-1A launch vehicle from the Tyuratam Missile And Space Complex (TTMTR). Unknown objects in Earth's orbit typically refer to objects detected orbiting the Earth but have not yet been identified or cataloged. These objects could be anything from previously untracked satellites, spent rocket stages, debris from satellite collisions, or even natural meteoroids temporarily captured by Earth's gravity.

Loading next visibility...
Identifier
42843, 2017-042U
Orbit
SSO
Country
Flag of TBDTBD
Related business
None
Manufacturer
Unknown
Mission
Non-operational Commercial Meteo Radio Occ.
Bus & Motor
Unknown
Mass
Unknown
Launch date (UTC)
2017-07-14 (9 years ago)
Launch vehicle
SOYUZ-2-1A
Launch site
Tyuratam Missile And Space Complex (TTMTR)
Object type
Unknown
Shape & HBR
Box + 2 Pan, 0.3 m
Radar Cross Section
0.079 m², Medium (>0.1 m² and < 1m²)

Expand to show TLE details & history
Last TLE update: 8 hours ago

TLE from 8 hours ago
0 OBJECT U
1 42843U 17042U   26237.16494874  .00001819  00000-0  14485-3 0  9992
2 42843  97.4916  31.3447 0011167 203.1436 156.9287 15.01536395496977
Epoch: 2026-08-25T03:57Z
TLE epoch observation values (Epoch: 2026-08-25T03:57:31.571Z)
Latitude
-0.00003°
Longitude
-1.47306°
Altitude
572.354 km
Speed
7.571 km/s
True Right ascension
02h 05m 22s
True Declination
0° 00' 00"
Sunlit
Object was in full shadow at epoch
Visualization orbit readout
Latitude
Unknown
Longitude
Unknown
Altitude
Unknown
Speed
Unknown
Apparent Right ascension
Unknown
Apparent Declination
Unknown
Sunlit
N/A
Visualization observer readout
Local Sidereal Time
03:27:46
Azimuth
Unknown
Elevation
Unknown
Doppler factor
Unknown
Orbital elements
Apogee altitude
566.899 km
Perigee altitude
551.405 km
Semi-major axis
6,937.289 km
Eccentricity
0.00112
Inclination
97.4916°
RAAN
31.3447°
Arg. of periapsis
203.1436°
True anomaly
156.97878°
Mean anomaly
156.9287°
Eccentric anomaly
156.95375°
Mean motion
3.75628 °/min
Orbital period
95.84 mins
BSTAR
0.00014485
Loading maneuver chart data...
Computing Atmospheric mass density...
Loading historical data...
Loading historical data...
Loading historical data...
Loading historical data...
Loading historical data...
Loading historical data...
Loading historical data...

Documentation

Showing up to 5 results
|